Location: Sebastopol
(38.4021°N, 122.8239°W)
Time: 15:14:28
(UTC+00:00)

CZ-4B R/B - Pass Details

Date: 29 October 2020
Orbit: 495 x 648 km, 97.8° (Epoch: 30 November)

Event Time Altitude Azimuth Distance (km) Brightness Sun altitude
Rises 12:54:54 0° 13° (NNE) 2,837 7.6 -20.2°
Reaches altitude 10° 12:57:08 10° 14° (NNE) 1,906 6.7 -19.7°
Maximum altitude 13:01:16 80° 103° (ESE) 574 3.9 -18.9°
Drops below altitude 10° 13:05:09 10° 190° (S) 1,800 6.4 -18.2°
Sets 13:07:12 0° 191° (S) 2,663 7.2 -17.8°
